| time (UTC) | temp C | wind direction | speed KPH | gust KPH | rain 1hr cm | rain 24hr cm | rain mn cm | humidity % | barometer mb |
| 20260504223317 | 25 | 106 | 9.7 | 24.1 | 0.00 | 0.00 | 0.00 | 61 | 1014.7 |
| 20260504222318 | 25 | 113 | 11.3 | 24.1 | 0.00 | 0.00 | 0.00 | 60 | 1014.6 |
| 20260504221317 | 26 | 94 | 12.9 | 27.4 | 0.00 | 0.00 | 0.00 | 58 | 1014.5 |
| 20260504220317 | 26 | 121 | 12.9 | 27.4 | 0.00 | 0.00 | 0.00 | 59 | 1014.4 |
| 20260504215319 | 26 | 89 | 11.3 | 25.7 | 0.00 | 0.00 | 0.00 | 57 | 1014.5 |
| 20260504214316 | 26 | 121 | 11.3 | 27.4 | 0.00 | 0.00 | 0.00 | 56 | 1014.4 |
| 20260504213316 | 26 | 64 | 11.3 | 24.1 | 0.00 | 0.00 | 0.00 | 59 | 1014.4 |
| 20260504212316 | 27 | 112 | 12.9 | 25.7 | 0.00 | 0.00 | 0.00 | 57 | 1014.3 |
| 20260504211315 | 27 | 102 | 12.9 | 25.7 | 0.00 | 0.00 | 0.00 | 55 | 1014.4 |
| 20260504210315 | 27 | 99 | 11.3 | 24.1 | 0.00 | 0.00 | 0.00 | 56 | 1014.4 |
| 20260504205313 | 27 | 129 | 11.3 | 22.5 | 0.00 | 0.00 | 0.00 | 57 | 1014.4 |
| 20260504204314 | 27 | 115 | 12.9 | 25.7 | 0.00 | 0.00 | 0.00 | 56 | 1014.5 |
| 20260504203316 | 27 | 95 | 12.9 | 24.1 | 0.00 | 0.00 | 0.00 | 54 | 1014.5 |
| 20260504202300 | 27 | 89 | 11.3 | 25.7 | 0.00 | 0.00 | 0.00 | 56 | 1014.6 |
| 20260504201740 | 27 | 116 | 12.9 | 24.1 | 0.00 | 0.00 | 0.00 | 54 | 1014.7 |
| 20260504200257 | 28 | 92 | 12.9 | 25.7 | 0.00 | 0.00 | 0.00 | 54 | 1014.7 |
| 20260504195258 | 28 | 103 | 12.9 | 29.0 | 0.00 | 0.00 | 0.00 | 54 | 1014.9 |
| 20260504194257 | 27 | 94 | 11.3 | 29.0 | 0.00 | 0.00 | 0.00 | 56 | 1015.0 |
| 20260504193258 | 27 | 89 | 11.3 | 27.4 | 0.00 | 0.00 | 0.00 | 55 | 1015.0 |
| 20260504192258 | 27 | 118 | 11.3 | 29.0 | 0.00 | 0.00 | 0.00 | 55 | 1015.1 |
| 20260504191259 | 27 | 108 | 14.5 | 27.4 | 0.00 | 0.00 | 0.00 | 55 | 1015.2 |
| 20260504190258 | 28 | 102 | 11.3 | 25.7 | 0.00 | 0.00 | 0.00 | 53 | 1015.3 |
| 20260504185258 | 28 | 109 | 9.7 | 19.3 | 0.00 | 0.00 | 0.00 | 53 | 1015.4 |
| 20260504184258 | 28 | 127 | 9.7 | 25.7 | 0.00 | 0.00 | 0.00 | 52 | 1015.7 |
| 20260504183257 | 28 | 84 | 9.7 | 22.5 | 0.00 | 0.00 | 0.00 | 52 | 1015.6 |
| 20260504182259 | 27 | 123 | 11.3 | 25.7 | 0.00 | 0.00 | 0.00 | 56 | 1015.9 |
| 20260504181258 | 27 | 116 | 9.7 | 25.7 | 0.00 | 0.00 | 0.00 | 54 | 1015.9 |
| 20260504180731 | 27 | 138 | 9.7 | 22.5 | 0.00 | 0.00 | 0.00 | 54 | 1016.1 |
| 20260504175259 | 28 | 64 | 9.7 | 27.4 | 0.00 | 0.00 | 0.00 | 53 | 1016.2 |
| 20260504174734 | 27 | 101 | 8.0 | 19.3 | 0.00 | 0.00 | 0.00 | 54 | 1016.2 |
| 20260504173249 | 27 | 50 | 8.0 | 20.9 | 0.00 | 0.00 | 0.00 | 55 | 1016.2 |
| 20260504172244 | 27 | 107 | 9.7 | 20.9 | 0.00 | 0.00 | 0.00 | 53 | 1016.3 |
| 20260504171233 | 28 | 46 | 11.3 | 25.7 | 0.00 | 0.00 | 0.00 | 51 | 1016.5 |
| 20260504170231 | 28 | 129 | 11.3 | 22.5 | 0.00 | 0.00 | 0.00 | 49 | 1016.6 |
| 20260504160215 | 27 | 123 | 11.3 | 20.9 | 0.00 | 0.00 | 0.00 | 54 | 1017.1 |
| 20260504150214 | 27 | 54 | 11.3 | 25.7 | 0.00 | 0.00 | 0.00 | 55 | 1017.2 |
| 20260504141210 | 25 | 29 | 12.9 | 24.1 | 0.00 | 0.00 | 0.00 | 63 | 1017.1 |
| 20260504140210 | 25 | 19 | 11.3 | 29.0 | 0.00 | 0.00 | 0.00 | 63 | 1017.0 |
| 20260504130159 | 22 | 56 | 9.7 | 20.9 | 0.00 | 0.00 | 0.00 | 72 | 1016.7 |
| 20260504120151 | 20 | 40 | 6.4 | 14.5 | 0.00 | 0.00 | 0.00 | 83 | 1016.4 |
| 20260504110144 | 18 | 26 | 6.4 | 12.9 | 0.00 | 0.00 | 0.00 | 88 | 1015.8 |
| 20260504100142 | 18 | 350 | 4.8 | 8.0 | 0.00 | 0.00 | 0.00 | 88 | 1015.4 |
| 20260504090120 | 19 | 5 | 6.4 | 12.9 | 0.00 | 0.00 | 0.00 | 83 | 1015.3 |
| 20260504081558 | 20 | 28 | 6.4 | 12.9 | 0.00 | 0.00 | 0.00 | 84 | 1015.4 |
| 20260504080118 | 20 | 350 | 4.8 | 14.5 | 0.00 | 0.00 | 0.00 | 84 | 1015.6 |
| 20260504070119 | 19 | 356 | 4.8 | 8.0 | 0.00 | 0.00 | 0.00 | 84 | 1015.5 |
| 20260504060107 | 20 | 34 | 4.8 | 11.3 | 0.00 | 0.00 | 0.00 | 81 | 1015.6 |
| 20260504044059 | 20 | 52 | 3.2 | 8.0 | 0.00 | 0.00 | 0.00 | 82 | 1017.1 |
| 20260504043100 | 20 | 52 | 3.2 | 8.0 | 0.00 | 0.00 | 0.00 | 81 | 1017.1 |
| 20260504042103 | 20 | 52 | 3.2 | 6.4 | 0.00 | 0.00 | 0.00 | 81 | 1017.1 |
| 20260504041053 | 20 | 52 | 4.8 | 8.0 | 0.00 | 0.00 | 0.00 | 80 | 1017.1 |
| 20260504040531 | 21 | 52 | 3.2 | 6.4 | 0.00 | 0.00 | 0.00 | 79 | 1017.1 |
| 20260504035057 | 20 | 54 | 4.8 | 8.0 | 0.00 | 0.00 | 0.30 | 80 | 1017.2 |
| 20260504034053 | 20 | 54 | 4.8 | 6.4 | 0.00 | 0.00 | 0.30 | 80 | 1017.1 |
| 20260504033056 | 20 | 55 | 3.2 | 6.4 | 0.00 | 0.00 | 0.30 | 80 | 1017.1 |
| 20260504032058 | 20 | 55 | 1.6 | 6.4 | 0.00 | 0.00 | 0.30 | 80 | 1017.3 |
| 20260504031053 | 20 | 55 | 3.2 | 6.4 | 0.00 | 0.00 | 0.30 | 80 | 1017.1 |
| 20260504031016 | 20 | 55 | 3.2 | 6.4 | 0.00 | 0.00 | 0.30 | 80 | 1017.1 |
| 20260504025051 | 21 | 55 | 3.2 | 1.6 | 0.00 | 0.00 | 0.30 | 79 | 1017.0 |
| 20260504023934 | 21 | 55 | 3.2 | 4.8 | 0.00 | 0.30 | 0.30 | 79 | 1017.2 |
| 20260504023414 | 21 | 55 | 1.6 | 3.2 | 0.00 | 0.30 | 0.30 | 79 | 1017.1 |
| 20260504021926 | 21 | 55 | 1.6 | 4.8 | 0.00 | 0.30 | 0.30 | 78 | 1016.9 |
| 20260504020930 | 21 | 55 | 3.2 | 6.4 | 0.00 | 0.30 | 0.30 | 77 | 1016.9 |
| 20260504020841 | 21 | 55 | 1.6 | 4.8 | 0.00 | 0.30 | 0.30 | 77 | 1016.8 |
| 20260504014908 | 21 | 55 | 4.8 | 11.3 | 0.00 | 0.30 | 0.30 | 76 | 1016.7 |
| 20260504013908 | 21 | 56 | 4.8 | 11.3 | 0.00 | 0.30 | 0.30 | 75 | 1016.7 |
| 20260504012910 | 22 | 51 | 4.8 | 9.7 | 0.00 | 0.30 | 0.30 | 75 | 1016.8 |
| 20260504011907 | 22 | 51 | 4.8 | 9.7 | 0.00 | 0.30 | 0.30 | 75 | 1016.7 |
| 20260504010907 | 22 | 55 | 4.8 | 9.7 | 0.00 | 0.30 | 0.30 | 75 | 1016.6 |
| 20260504005902 | 22 | 55 | 4.8 | 16.1 | 0.00 | 0.30 | 0.30 | 75 | 1016.4 |
| 20260504004901 | 22 | 54 | 6.4 | 14.5 | 0.00 | 0.30 | 0.30 | 74 | 1016.2 |
| 20260504003902 | 22 | 63 | 4.8 | 17.7 | 0.00 | 0.30 | 0.30 | 73 | 1016.1 |
| 20260504002848 | 22 | 65 | 4.8 | 9.7 | 0.00 | 0.30 | 0.30 | 73 | 1016.1 |
| 20260504001848 | 22 | 36 | 6.4 | 12.9 | 0.00 | 0.30 | 0.30 | 72 | 1016.1 |
| 20260504000846 | 22 | 56 | 6.4 | 14.5 | 0.00 | 0.30 | 0.30 | 71 | 1015.9 |
| 20260503235847 | 22 | 66 | 6.4 | 12.9 | 0.00 | 0.30 | 0.30 | 71 | 1015.8 |
| 20260503234854 | 23 | 81 | 4.8 | 12.9 | 0.00 | 0.30 | 0.30 | 70 | 1015.7 |
| 20260503233848 | 23 | 55 | 6.4 | 16.1 | 0.00 | 0.30 | 0.30 | 71 | 1015.8 |
| 20260503233322 | 23 | 56 | 6.4 | 14.5 | 0.00 | 0.30 | 0.30 | 70 | 1015.7 |
| 20260503232339 | 23 | 58 | 6.4 | 17.7 | 0.00 | 0.30 | 0.30 | 70 | 1015.7 |
| 20260503230846 | 23 | 59 | 8.0 | 16.1 | 0.00 | 0.33 | 0.30 | 69 | 1015.6 |
| 20260503225847 | 23 | 70 | 6.4 | 19.3 | 0.00 | 0.33 | 0.30 | 68 | 1015.6 |
| 20260503224845 | 24 | 50 | 6.4 | 14.5 | 0.00 | 0.33 | 0.30 | 68 | 1015.7 |